Hatteras, NC

4:39 PM EST on January 21, 2018 (GMT -0500)
Mitchell

Weather History for KHSE - April, 2013

Change the Weather History Date:

Monday, April 15, 2013

  Actual Average Record
Temperature  
Mean Temperature 66 °F 59 °F  
Max Temperature 71 °F 66 °F 84 °F (1922)
Min Temperature 60 °F 53 °F 36 °F (1907)
Degree Days  
Heating Degree Days 0 6  
Month to date heating degree days 105 119  
Since 1 July heating degree days 2324 2462  
Cooling Degree Days 1 1  
Month to date cooling degree days 1 6  
Year to date cooling degree days 1 9  
Growing Degree Days 16 (Base 50)    
Moisture  
Dew Point 56 °F    
Average Humidity 75    
Maximum Humidity 93    
Minimum Humidity 57    
Precipitation  
Precipitation 0.11 in 0.11 in 2.20 in (1999)
Month to date precipitation 1.75 1.93  
Year to date precipitation 13.70 15.96  
Snow  
Snow 0.00 in - - ()
Month to date snowfall 0.0  
Since 1 July snowfall 0.0  
Snow Depth 0.00 in    
Sea Level Pressure  
Sea Level Pressure 30.13 in    
Wind  
Wind Speed 9 mph (East)    
Max Wind Speed 21 mph    
Max Gust Speed 26 mph    
Visibility 9 miles    
Events Rain    
T = Trace of Precipitation, MM = Missing Value Source: NWS Daily Summary

Daily Weather History Graph

Daily Weather History Graph

Search for Another Location

Airport or City:

Trip Planner

Search our weather history database for the weather conditions in past years. The results will help you decide how hot, cold, wet, or windy it might be!

Date:

Astronomy

Apr. 15, 2013 Rise Set
Actual Time 6:29 AM EDT 7:35 PM EDT
Civil Twilight 6:03 AM EDT 8:01 PM EDT
Nautical Twilight 5:32 AM EDT 8:32 PM EDT
Astronomical Twilight 5:00 AM EDT 9:05 PM EDT
Moon 10:00 AM EDT (4/15) No Moon Set
Length of Visible Light 13h 57m
Length of Day
13h 05m
Waxing Crescent, 24% of the Moon is Illuminated
Apr 15
Waxing Crescent
Apr 18
First Quarter
Apr 25
Full
May 2
Last Quarter
May 9
New

Hourly Weather History & Observations

Time (EDT) Temp. Dew Point Humidity Pressure Visibility Wind Dir Wind Speed Gust Speed Precip Events Conditions
12:51 AM 60.1 °F 51.1 °F 72% 30.10 in 10.0 mi East 11.5 mph - N/A   Clear
1:51 AM 62.1 °F 48.0 °F 60% 30.11 in 10.0 mi East 6.9 mph - N/A   Clear
2:51 AM 62.1 °F 51.1 °F 67% 30.09 in 10.0 mi East 11.5 mph - N/A   Mostly Cloudy
3:51 AM 62.1 °F 54.0 °F 75% 30.09 in 10.0 mi East 8.1 mph - N/A   Clear
4:51 AM 63.0 °F 55.0 °F 75% 30.14 in 10.0 mi East 3.5 mph - N/A   Overcast
5:51 AM 63.0 °F 55.9 °F 78% 30.13 in 10.0 mi ENE 3.5 mph - N/A   Mostly Cloudy
6:51 AM 60.1 °F 55.9 °F 86% 30.15 in 9.0 mi NE 6.9 mph - 0.04 in Rain Light Rain
7:51 AM 61.0 °F 54.0 °F 78% 30.09 in 10.0 mi ENE 10.4 mph 20.7 mph 0.01 in Rain Light Rain
9:51 AM 62.1 °F 55.9 °F 80% 30.10 in 10.0 mi East 10.4 mph - 0.00 in Rain Light Rain
10:51 AM 61.0 °F 55.0 °F 81% 30.10 in 8.0 mi SE 11.5 mph - 0.00 in   Mostly Cloudy
11:51 AM 62.1 °F 53.1 °F 72% 30.09 in 10.0 mi ESE 15.0 mph 20.7 mph N/A   Clear
12:51 PM 66.0 °F 55.9 °F 70% 30.09 in 9.0 mi ESE 11.5 mph - N/A   Clear
1:51 PM 66.9 °F 57.0 °F 70% 30.09 in 7.0 mi ESE 13.8 mph - N/A   Partly Cloudy
2:51 PM 68.0 °F 55.9 °F 65% 30.09 in 7.0 mi ESE 11.5 mph - N/A   Mostly Cloudy
3:51 PM 71.1 °F 55.9 °F 59% 30.10 in 8.0 mi East 11.5 mph 19.6 mph N/A   Overcast
4:51 PM 68.0 °F 55.9 °F 65% 30.10 in 10.0 mi ENE 6.9 mph - N/A   Overcast
5:51 PM 66.0 °F 55.9 °F 70% 30.12 in 10.0 mi ENE 5.8 mph - N/A   Overcast
6:51 PM 64.0 °F 55.9 °F 75% 30.14 in 10.0 mi East 8.1 mph - N/A   Overcast
7:51 PM 63.0 °F 57.9 °F 84% 30.14 in 10.0 mi East 5.8 mph - N/A   Overcast
8:51 PM 63.0 °F 59.0 °F 87% 30.17 in 10.0 mi ENE 8.1 mph - N/A   Overcast
9:26 PM 62.6 °F 59.0 °F 88% 30.19 in 6.0 mi East 10.4 mph - 0.00 in Rain Light Rain
9:51 PM 61.0 °F 59.0 °F 93% 30.20 in 6.0 mi ENE 5.8 mph - 0.00 in Rain Light Rain
10:36 PM 62.6 °F 59.0 °F 88% 30.21 in 7.0 mi ENE 5.8 mph - 0.05 in Rain Light Rain
10:48 PM 62.6 °F 60.8 °F 94% 30.21 in 8.0 mi East 9.2 mph - 0.05 in Rain Light Rain
10:51 PM 62.1 °F 60.1 °F 93% 30.21 in 8.0 mi East 9.2 mph - 0.05 in   Overcast
11:51 PM 63.0 °F 60.1 °F 90% 30.21 in 10.0 mi East 12.7 mph 21.9 mph N/A   Overcast